User: anonymous   Login
Location: Albany
(35.0000°S, 118.0000°E)
Time: 20:20:16
(UTC-04:00)
Language:

Cosmos 1758 Rocket - Orbit

View from above orbital plane
View from above orbital plane
View from above satellite
View from above satellite

Ground track
Ground track

The orbit data is extracted from the following two-line orbital elements,

1 16792U 86046B   15243.72307418  .00000159  00000-0  16672-4 0  9997
2 16792  82.4812  99.0974 0022922 292.6345 133.8250 14.82956511577731
Epoch (UTC): 31 August 2015 17:21:13
Eccentricity: 0.0022922
inclination: 82.4812°
perigee height: 604 km
apogee height: 636 km
right ascension of ascending node: 99.0974°
argument of perigee: 292.6345°
revolutions per day: 14.82956511
mean anomaly at epoch: 133.8250°
orbit number at epoch: 57773

The dashed part of the orbit path shows where the satellite is in the earth's shadow,  

DLR